Stations météo

réclame
Mon MeteoGroup
St-Girons, France (7627): Température de l'air & dewpoint: 01.08.2020 22:00:00 - 07.08.2020 22:00:00 (CEST)St-Girons, France (7627): Température de l'air 5cm: 01.08.2020 22:00:00 - 07.08.2020 22:00:00 (CEST)St-Girons, France (7627): Température de l'air -20cm & Température de l'air -100cm: 01.08.2020 22:00:00 - 07.08.2020 22:00:00 (CEST)St-Girons, France (7627): Vitesse du vent & gusts: 01.08.2020 22:00:00 - 07.08.2020 22:00:00 (CEST)St-Girons, France (7627): Direction du vent: 01.08.2020 22:00:00 - 07.08.2020 22:00:00 (CEST)St-Girons, France (7627): reduced air pressure: 01.08.2020 22:00:00 - 07.08.2020 22:00:00 (CEST)St-Girons, France (7627): visibility: 01.08.2020 22:00:00 - 07.08.2020 22:00:00 (CEST)St-Girons, France (7627): Ensoleillement: 01.08.2020 22:00:00 - 07.08.2020 22:00:00 (CEST)St-Girons, France (7627): Quantités de précipitations: 01.08.2020 22:00:00 - 07.08.2020 22:00:00 (CEST)
Date & Time tt [°C] td [°C] tt 5cm [°C] tt -20cm [°C] tt -100cm [°C] ff [km/h] ff [knt] fx [km/h] fx [knt] dd ppp [hPa] vv [km] sd [min] rr [mm]
07.08.2020 22:00:00 26,0 16,3 21,9 22,2 20,0 6 3 18 10 S 1016,3 20 0 0,0
07.08.2020 21:00:00 27,1 17,0 23,0 22,1 20,0 9 5 11 6 SE 1014,9 20 10 0,0
07.08.2020 20:00:00 34,8 14,1 34,6 22,0 20,0 5 3 21 11 E 1012,9 20 60 0,0
07.08.2020 19:00:00 36,5 12,0 36,3 21,9 20,0 9 5 20 11 E 1012,7 20 60 0,0
07.08.2020 18:00:00 37,4 10,7 41,7 21,7 20,0 11 6 24 13 E 1012,8 20 60 0,0
07.08.2020 17:00:00 37,9 11,8 44,2 21,5 20,0 9 5 21 11 NE 1013,1 20 60 0,0
07.08.2020 16:00:00 38,1 10,5 44,2 21,4 20,0 7 4 20 11 NNE 1013,4 20 60 0,0
07.08.2020 15:00:00 36,6 12,8 44,0 21,3 20,0 6 4 16 9 NW 1014,0 20 60 0,0
07.08.2020 14:00:00 35,9 13,4 44,1 21,2 20,0 5 3 10 6 E 1014,3 20 60 0,0
07.08.2020 13:00:00 34,7 13,5 35,9 21,1 20,0 3 2 9 5 SE 1014,7 20 41 0,0
07.08.2020 12:00:00 33,1 14,7 36,9 21,1 20,0 3 2 7 4 E 1015,0 20 48 0,0
07.08.2020 11:00:00 30,1 15,4 30,4 21,2 20,0 2 1 8 5 S 1015,1 20 53 0,0
07.08.2020 10:00:00 27,7 16,3 24,7 21,2 20,0 3 2 11 6 SSW 1015,1 20 60 0,0
07.08.2020 09:00:00 22,9 14,2 20,3 21,3 20,0 0 0 11 6 N 1015,7 20 60 0,0
07.08.2020 08:00:00 18,4 13,0 14,1 21,4 20,0 6 3 16 9 W 1016,0 20 23 0,0
07.08.2020 07:00:00 16,5 12,1 12,8 21,4 20,0 5 3 13 7 SW 1016,2 20 0 0,0
07.08.2020 06:00:00 16,0 11,8 13,6 21,5 20,0 3 1 29 15 WSW 1016,1 20 0 0,0
07.08.2020 05:00:00 20,7 11,6 14,7 21,6 20,0 14 8 26 14 SE 1015,0 20 0 0,0
07.08.2020 04:00:00 18,6 11,9 15,4 21,6 20,0 3 2 25 13 SW 1015,8 20 0 0,0
07.08.2020 03:00:00 21,6 11,9 19,2 21,7 20,0 18 10 34 18 SSE 1015,6 20 0 0,0
07.08.2020 02:00:00 22,7 11,7 19,4 21,7 20,0 17 9 31 17 SE 1015,5 20 0 0,0
07.08.2020 01:00:00 23,3 12,0 20,4 21,7 20,0 19 10 27 14 SE 1015,7 20 0 0,0
07.08.2020 00:00:00 24,2 12,5 20,4 21,7 20,0 17 9 31 17 SE 1015,6 20 0 0,0
06.08.2020 23:00:00 24,2 12,8 18,2 21,7 20,0 17 9 23 12 SE 1015,6 20 0 0,0
06.08.2020 22:00:00 22,8 13,6 18,2 21,7 20,0 9 5 16 9 SSE 1015,5 20 0 0,0
06.08.2020 21:00:00 24,6 13,2 20,8 21,6 20,0 8 4 10 6 SSE 1014,8 20 35 0,0
06.08.2020 20:00:00 30,7 14,8 32,0 21,5 20,0 5 3 12 6 W 1013,3 20 60 0,0
06.08.2020 19:00:00 34,1 9,4 33,8 21,3 20,0 5 3 15 8 NNE 1012,6 20 60 0,0
06.08.2020 18:00:00 34,7 8,4 40,5 21,2 20,0 8 4 19 11 NNE 1012,5 20 60 0,0
06.08.2020 17:00:00 34,8 9,2 41,2 21,0 20,0 7 4 18 10 N 1012,6 20 60 0,0
06.08.2020 16:00:00 34,3 8,8 42,3 20,9 20,0 6 3 17 9 N 1012,8 18 60 0,0
06.08.2020 15:00:00 33,4 9,4 - - - 8 4 21 11 NNE 1013,3 20 - 0,0
06.08.2020 14:00:00 32,3 10,3 39,7 20,7 20,0 7 4 21 11 NE 1013,7 20 60 0,0
06.08.2020 13:00:00 30,7 10,1 39,2 20,6 20,0 7 4 14 7 E 1014,4 20 60 0,0
06.08.2020 12:00:00 29,5 11,1 36,0 20,6 20,0 4 2 11 6 ESE 1014,8 20 60 0,0
06.08.2020 11:00:00 26,8 12,4 29,9 20,7 20,0 4 2 11 6 E 1015,4 20 60 0,0
06.08.2020 10:00:00 24,0 13,2 20,1 20,8 20,0 4 2 10 6 SSE 1015,8 20 60 0,0
06.08.2020 09:00:00 18,6 11,9 16,0 20,9 20,0 2 1 14 7 W 1016,6 20 60 0,0
06.08.2020 08:00:00 13,0 11,6 7,7 21,0 20,0 2 1 6 3 SSE 1017,3 20 24 0,0
06.08.2020 07:00:00 10,6 10,0 6,9 21,0 20,0 2 1 6 3 W 1017,5 20 0 0,0
06.08.2020 06:00:00 11,5 9,7 7,6 21,1 20,0 0 0 6 3 N 1017,1 20 0 0,0
06.08.2020 05:00:00 12,0 9,7 8,3 21,2 20,0 0 0 10 5 N 1016,9 20 0 0,0
06.08.2020 04:00:00 13,6 9,2 10,4 21,3 20,0 2 1 16 9 SE 1016,7 20 0 0,0
06.08.2020 03:00:00 17,4 9,6 14,8 21,4 20,1 11 6 21 12 SE 1016,1 20 0 0,0
06.08.2020 02:00:00 18,0 10,1 10,6 21,5 20,1 13 7 21 12 SE 1016,1 20 0 0,0
06.08.2020 01:00:00 14,7 9,9 10,3 21,5 20,0 5 3 14 8 SSW 1016,9 20 0 0,0
06.08.2020 00:00:00 14,3 9,7 10,0 21,5 20,1 3 2 9 5 W 1017,0 20 0 0,0
05.08.2020 23:00:00 17,3 9,5 12,6 21,5 20,1 7 4 10 5 S 1016,2 20 0 0,0
05.08.2020 22:00:00 18,7 10,3 13,9 21,5 20,0 4 2 10 6 S 1015,4 20 0 0,0
05.08.2020 21:00:00 20,8 11,7 17,8 21,4 20,1 6 4 8 5 WSW 1014,2 20 36 0,0
05.08.2020 20:00:00 28,7 6,7 29,9 21,3 20,0 5 3 14 7 N 1012,6 20 60 0,0
05.08.2020 19:00:00 29,6 5,6 30,7 21,2 20,1 8 5 17 9 NNW 1012,1 20 60 0,0
05.08.2020 18:00:00 30,1 6,0 36,6 21,1 20,1 6 3 18 10 NNE 1011,9 20 60 0,0
05.08.2020 17:00:00 30,4 8,2 36,7 20,9 20,1 5 3 19 10 NE 1011,9 20 60 0,0
05.08.2020 16:00:00 29,7 8,7 37,5 20,8 20,1 8 4 19 10 N 1012,3 20 60 0,0
05.08.2020 15:00:00 28,9 10,1 36,7 20,7 20,1 6 3 15 8 N 1012,5 19 60 0,0
05.08.2020 14:00:00 27,5 8,9 37,2 20,6 20,1 5 3 14 8 N 1013,2 20 60 0,0
05.08.2020 13:00:00 26,5 9,8 35,4 20,6 20,1 6 3 13 7 N 1013,8 20 60 0,0
05.08.2020 12:00:00 24,5 10,0 31,8 20,6 20,1 6 4 14 8 ESE 1014,5 20 60 0,0
05.08.2020 11:00:00 22,7 9,1 26,4 20,7 20,1 6 4 14 8 SE 1015,3 20 60 0,0
05.08.2020 10:00:00 20,4 11,6 18,2 20,7 20,1 8 4 21 11 ESE 1015,7 20 60 0,0
05.08.2020 09:00:00 17,5 10,8 16,0 20,8 20,1 8 5 22 12 ESE 1016,4 20 60 0,0
05.08.2020 08:00:00 15,2 9,8 11,5 20,9 20,1 17 9 27 15 SE 1016,5 20 25 0,0
05.08.2020 07:00:00 13,1 9,3 11,1 21,0 20,1 14 7 21 12 SE 1016,9 20 0 0,0
05.08.2020 06:00:00 13,3 10,1 6,7 21,1 20,1 10 5 19 10 SE 1017,2 20 0 0,0
05.08.2020 05:00:00 10,7 9,8 6,8 21,2 20,1 2 1 19 11 WSW 1017,8 20 0 0,0
05.08.2020 04:00:00 13,4 10,6 7,6 21,3 20,1 13 7 21 11 SSE 1017,3 20 0 0,0
05.08.2020 03:00:00 11,5 9,9 8,0 21,4 20,1 2 1 16 9 S 1018,0 20 0 0,0
05.08.2020 02:00:00 11,4 9,8 7,4 21,4 20,1 0 0 7 4 N 1018,7 20 0 0,0
05.08.2020 01:00:00 12,6 10,0 8,6 21,5 20,1 2 1 6 3 S 1018,6 20 0 0,0
05.08.2020 00:00:00 13,5 10,8 9,8 21,5 20,1 3 2 8 5 SSE 1018,7 20 0 0,0
04.08.2020 23:00:00 14,9 10,5 10,6 21,5 20,1 0 0 9 5 N 1018,5 20 0 0,0
04.08.2020 22:00:00 17,4 10,5 12,2 21,6 20,2 5 3 9 5 SE 1017,8 20 0 0,0
04.08.2020 21:00:00 19,6 10,6 16,2 21,5 20,1 5 3 17 9 W 1017,0 20 38 0,0
04.08.2020 20:00:00 23,1 8,8 24,1 21,4 20,1 13 7 24 13 NW 1016,2 19 60 0,0
04.08.2020 19:00:00 24,3 10,2 26,1 21,4 20,1 13 7 26 14 NNW 1015,7 20 60 0,0
04.08.2020 18:00:00 24,5 11,1 29,7 21,3 20,1 17 9 30 16 NW 1016,1 20 60 0,0
04.08.2020 17:00:00 24,4 11,7 31,3 21,2 20,1 15 8 32 18 NW 1016,3 20 60 0,0
04.08.2020 16:00:00 24,1 12,1 31,1 21,1 20,1 18 10 36 19 NW 1016,7 20 60 0,0
04.08.2020 15:00:00 23,5 12,8 27,5 21,0 20,1 17 9 32 17 NNW 1017,0 20 55 0,0
04.08.2020 14:00:00 22,5 12,7 24,8 21,0 20,1 16 9 34 19 NNW 1017,6 20 45 0,0
04.08.2020 13:00:00 21,9 14,5 22,8 21,0 20,1 12 6 27 14 NW 1018,0 20 51 0,0
04.08.2020 12:00:00 20,5 14,4 21,3 21,0 20,2 14 8 29 16 NW 1018,5 20 27 0,0
04.08.2020 11:00:00 19,3 14,8 20,4 21,1 20,2 7 4 16 9 WNW 1018,9 20 20 0,0
04.08.2020 10:00:00 17,1 13,8 17,3 21,1 20,1 8 5 16 9 NNW 1019,5 20 5 0,0
04.08.2020 09:00:00 16,4 13,9 16,4 21,2 20,2 8 4 18 10 NNW 1019,4 20 0 0,0
04.08.2020 08:00:00 15,9 13,7 15,1 21,2 20,2 8 5 16 8 NNW 1019,2 20 4 0,0
04.08.2020 07:00:00 15,8 13,5 15,3 21,3 20,2 10 6 22 12 WNW 1019,2 20 0 0,0
04.08.2020 06:00:00 15,7 13,7 14,7 21,4 20,2 14 8 21 12 NW 1018,9 20 0 0,0
04.08.2020 05:00:00 15,7 13,4 14,8 21,4 20,2 9 5 24 13 WNW 1018,7 20 0 0,0
04.08.2020 04:00:00 16,6 13,7 16,0 21,4 20,2 12 7 21 11 WNW 1018,6 20 0 0,0
04.08.2020 03:00:00 16,9 13,4 16,1 21,5 20,2 11 6 21 12 WNW 1019,1 20 0 0,0
04.08.2020 02:00:00 17,6 13,5 16,9 21,5 20,2 14 8 32 17 WNW 1019,1 20 0 0,0
04.08.2020 01:00:00 17,8 13,1 16,0 21,6 20,2 9 5 17 9 WNW 1019,0 20 0 0,0
04.08.2020 00:00:00 17,7 12,8 15,4 21,6 20,2 5 3 19 11 W 1019,0 20 0 0,0
03.08.2020 23:00:00 17,9 12,1 16,1 21,6 20,2 9 5 19 11 W 1018,7 20 0 0,0
03.08.2020 22:00:00 17,8 11,6 15,3 21,6 20,2 9 5 18 10 W 1018,1 20 0 0,0
03.08.2020 21:00:00 18,9 11,5 16,4 21,6 20,2 6 4 23 13 W 1017,1 20 7 0,0
03.08.2020 20:00:00 20,4 11,3 19,8 21,6 20,2 16 8 28 15 WNW 1016,4 20 0 0,0
03.08.2020 19:00:00 20,9 11,0 20,8 21,6 20,2 16 9 34 18 NW 1016,2 20 3 0,0
03.08.2020 18:00:00 21,4 10,8 22,0 21,5 20,2 19 10 39 21 WNW 1016,0 20 46 0,0
03.08.2020 17:00:00 23,2 10,9 29,4 21,4 20,2 21 12 39 21 WNW 1015,8 20 60 0,0
03.08.2020 16:00:00 23,0 11,1 27,2 21,4 20,2 20 11 37 20 NW 1016,1 20 57 0,0
03.08.2020 15:00:00 22,6 12,2 28,4 21,3 20,2 18 10 38 21 NW 1016,7 20 60 0,0
03.08.2020 14:00:00 21,8 11,5 23,0 21,3 20,2 20 11 34 19 NW 1017,5 20 34 0,0
03.08.2020 13:00:00 20,7 12,4 22,3 21,3 20,2 21 11 35 19 NW 1017,9 20 52 0,0
03.08.2020 12:00:00 19,4 11,9 21,3 21,3 20,2 18 10 38 20 NW 1018,4 20 47 0,0
03.08.2020 11:00:00 18,1 11,6 20,6 21,4 20,2 17 9 26 14 NW 1018,5 20 38 0,0
03.08.2020 10:00:00 17,4 12,9 18,7 21,4 20,2 10 5 19 10 WNW 1018,6 20 25 0,0
03.08.2020 09:00:00 16,1 12,1 15,3 21,5 20,2 0 0 10 6 N 1018,9 20 1 0,0
03.08.2020 08:00:00 15,0 11,6 14,3 21,5 20,2 10 6 18 10 WNW 1019,2 20 0 0,0
03.08.2020 07:00:00 14,7 11,7 13,8 21,6 20,2 14 7 24 13 WNW 1019,1 20 0 0,0
03.08.2020 06:00:00 14,7 11,8 13,8 21,6 20,2 5 3 18 10 WNW 1018,4 20 0 0,0
03.08.2020 05:00:00 15,3 12,1 14,7 21,7 20,2 8 5 16 9 NW 1018,7 20 0 0,0
03.08.2020 04:00:00 15,6 12,0 15,0 21,7 20,2 5 3 14 8 NW 1019,0 20 0 0,0
03.08.2020 03:00:00 15,9 12,3 15,1 21,8 20,2 6 4 30 16 WNW 1019,6 20 0 0,0
03.08.2020 02:00:00 16,1 12,8 15,4 21,8 20,2 18 10 31 17 W 1020,1 19 0 0,0
03.08.2020 01:00:00 17,1 13,4 16,4 21,8 20,2 18 10 30 16 W 1019,8 20 0 0,0
03.08.2020 00:00:00 17,3 14,8 16,5 21,9 20,2 3 1 9 5 NNE 1019,7 20 0 0,0
02.08.2020 23:00:00 16,9 14,2 16,4 21,9 20,2 4 2 8 4 SW 1019,7 20 0 0,0
02.08.2020 22:00:00 17,3 14,9 16,6 21,9 20,2 2 1 7 4 SW 1019,6 20 0 0,0
02.08.2020 21:00:00 17,9 15,0 17,3 22,0 20,2 3 2 7 4 S 1019,1 20 0 0,0
02.08.2020 20:00:00 18,7 14,4 18,4 22,0 20,2 2 1 22 12 NE 1018,4 20 0 0,0
02.08.2020 19:00:00 18,6 13,7 18,6 22,0 20,2 14 8 26 14 W 1019,0 20 0 0,0
02.08.2020 18:00:00 18,7 14,2 17,0 22,0 20,2 10 5 23 13 W 1019,5 20 0 0,0
02.08.2020 17:00:00 17,1 15,4 16,7 22,0 20,2 12 6 23 12 W 1019,7 15 0 0,0
02.08.2020 16:00:00 18,0 15,6 18,4 22,0 20,2 14 8 26 14 WNW 1019,7 14 0 0,0
02.08.2020 15:00:00 19,5 14,7 22,3 22,0 20,2 13 7 23 13 W 1019,9 20 0 0,0
02.08.2020 14:00:00 17,9 15,2 17,3 22,0 20,2 10 5 25 13 W 1020,6 20 0 0,0
02.08.2020 13:00:00 16,4 15,4 17,2 22,1 20,2 14 7 25 13 NNW 1021,1 12 0 0,2
02.08.2020 12:00:00 17,4 15,9 18,6 22,1 20,2 9 5 15 8 NW 1020,9 19 0 0,0
02.08.2020 11:00:00 17,2 15,2 18,4 22,1 20,2 9 5 15 8 NW 1020,7 20 0 0,0
02.08.2020 10:00:00 17,2 15,5 18,5 22,2 20,2 4 2 8 4 E 1020,5 20 0 0,0
02.08.2020 09:00:00 16,9 15,2 15,5 22,2 20,2 2 1 10 6 NE 1020,6 20 0 0,0
02.08.2020 08:00:00 15,7 14,7 15,4 22,3 20,1 8 4 28 15 WNW 1021,0 20 0 0,0
02.08.2020 07:00:00 16,4 15,8 16,2 22,3 20,2 12 7 23 13 WNW 1020,7 6 0 0,6
02.08.2020 06:00:00 17,3 16,8 17,0 22,4 20,1 9 5 29 16 NW 1020,3 3,4 0 1,0
02.08.2020 05:00:00 18,7 17,4 18,1 22,4 20,1 8 4 14 7 WNW 1019,4 9 0 0,0
02.08.2020 04:00:00 19,5 16,9 19,0 22,5 20,2 8 5 18 10 WNW 1019,5 20 0 0,0
02.08.2020 03:00:00 19,7 16,9 19,1 22,5 20,2 10 5 18 10 NW 1019,9 20 0 0,0
02.08.2020 02:00:00 19,7 17,1 19,0 22,5 20,2 9 5 19 10 NW 1020,3 20 0 0,0
02.08.2020 01:00:00 19,8 17,6 19,2 22,6 20,1 3 1 10 5 W 1020,4 20 0 0,0
02.08.2020 00:00:00 20,1 17,5 19,4 22,6 20,1 8 4 11 6 WNW 1020,9 20 0 0,0
01.08.2020 23:00:00 20,6 17,4 19,7 22,6 20,1 0 0 8 4 N 1021,0 20 0 0,0
01.08.2020 22:00:00 21,0 17,4 20,1 22,6 20,1 3 1 16 8 N 1020,6 20 0 0,0

tt = Température de l'air
td = dewpoint
tt 5cm = Température de l'air 5cm
tt -20cm = Température de l'air -20cm
tt -100cm = Température de l'air -100cm
ff = Vitesse du vent
fx = gusts
dd = Direction du vent
ppp = reduced air pressure
vv = visibility
sd = Ensoleillement
rr = Quantités de précipitations

stations d'obs. à proximité